Cedar Rapids, IA

3:08 PM CST on November 16, 2019 (GMT -0600)
The Eastern Iowa Airport

Weather History for KCID - September, 2019

Change the Weather History Date:

Sunday, September 15, 2019

  Actual Average Record
Temperature  
Mean Temperature 76 °F 63 °F  
Max Temperature 85 °F 75 °F 97 °F (1939)
Min Temperature 66 °F 51 °F 31 °F (2007)
Degree Days  
Heating Degree Days 0 4  
Month to date heating degree days 12 38  
Since 1 July heating degree days 20 57  
Cooling Degree Days 11 2  
Month to date cooling degree days 67 51  
Year to date cooling degree days 719 719  
Growing Degree Days 24 (Base 50)    
Moisture  
Dew Point 69 °F    
Average Humidity 83    
Maximum Humidity 100    
Minimum Humidity 65    
Precipitation  
Precipitation 0.00 in 0.10 in 7.78 in (1914)
Month to date precipitation 2.42 1.67  
Year to date precipitation 30.27 26.97  
Sea Level Pressure  
Sea Level Pressure 29.99 in    
Wind  
Wind Speed 8 mph (South)    
Max Wind Speed 17 mph    
Max Gust Speed 23 mph    
Visibility 9 miles    
Events Rain , Thunderstorm    
T = Trace of Precipitation, MM = Missing Value Source: NWS Daily Summary

Daily Weather History Graph

Daily Weather History Graph

Search for Another Location

Airport or City:

Astronomy

Sep. 15, 2019 Rise Set
Actual Time 6:46 AM CDT 7:16 PM CDT
Civil Twilight 6:18 AM CDT 7:44 PM CDT
Nautical Twilight 5:45 AM CDT 8:17 PM CDT
Astronomical Twilight 5:11 AM CDT 8:51 PM CDT
Moon 8:23 PM CDT (9/15) 7:57 AM CDT (9/15)
Length of Visible Light 13h 25m
Length of Day
12h 29m
Full, 98% of the Moon is Illuminated
Sep 15
Full
Sep 21
Last Quarter
Sep 28
New
Oct 5
First Quarter
Oct 13
Full

Hourly Weather History & Observations

Time (CDT) Temp. Heat Index Dew Point Humidity Pressure Visibility Wind Dir Wind Speed Gust Speed Precip Events Conditions
12:05 AM 68.0 °F - 64.0 °F 87% 30.03 in 10.0 mi SSE 15.0 mph 23.0 mph 0.00 in Rain , Thunderstorm Light Thunderstorms and Rain
12:20 AM 66.0 °F - 64.0 °F 93% 30.03 in 8.0 mi South 12.7 mph - 0.02 in Rain , Thunderstorm Light Rain
12:36 AM 64.9 °F - 64.9 °F 100% 30.03 in 1.8 mi South 16.1 mph 24.2 mph 0.15 in Rain , Thunderstorm Heavy Rain
12:43 AM 64.4 °F - 64.4 °F 100% 30.01 in 2.0 mi South 12.7 mph 24.2 mph N/A Rain , Thunderstorm Thunderstorms and Rain
12:52 AM 66.0 °F - 64.9 °F 96% 30.00 in 10.0 mi South 9.2 mph - 0.22 in Thunderstorm Thunderstorm
1:11 AM 66.0 °F - 66.0 °F 100% 30.01 in 10.0 mi South 10.4 mph - N/A   Mostly Cloudy
1:42 AM 66.9 °F - 64.0 °F 90% 30.00 in 10.0 mi South 12.7 mph - N/A Thunderstorm Mostly Cloudy
1:52 AM 66.9 °F - 64.0 °F 90% 29.98 in 10.0 mi South 11.5 mph 23.0 mph N/A Thunderstorm Scattered Clouds
2:41 AM 66.9 °F - 66.0 °F 97% 29.99 in 10.0 mi South 9.2 mph - N/A   Overcast
2:52 AM 66.9 °F - 66.0 °F 97% 29.97 in 10.0 mi South 10.4 mph - N/A   Overcast
3:52 AM 66.9 °F - 66.0 °F 97% 29.96 in 10.0 mi South 10.4 mph - N/A   Mostly Cloudy
4:52 AM 66.9 °F - 66.0 °F 97% 29.96 in 10.0 mi South 10.4 mph - N/A   Clear
5:52 AM 66.9 °F - 66.0 °F 97% 29.96 in 10.0 mi SSE 10.4 mph - N/A   Scattered Clouds
6:52 AM 66.9 °F - 66.0 °F 97% 29.97 in 9.0 mi SSE 8.1 mph - N/A   Scattered Clouds
7:52 AM 68.0 °F - 66.9 °F 96% 29.99 in 8.0 mi SSE 8.1 mph - N/A   Mostly Cloudy
8:52 AM 70.0 °F - 69.1 °F 97% 29.98 in 9.0 mi South 10.4 mph - N/A   Mostly Cloudy
9:52 AM 73.9 °F - 69.1 °F 85% 29.97 in 10.0 mi South 10.4 mph - N/A   Clear
10:52 AM 75.9 °F - 71.1 °F 85% 29.98 in 10.0 mi SSW 12.7 mph - N/A   Overcast
11:12 AM 77.0 °F - 71.1 °F 82% 29.99 in 10.0 mi SSW 9.2 mph - N/A   Overcast
11:52 AM 78.1 °F - 72.0 °F 81% 29.96 in 10.0 mi SSW 10.4 mph - N/A   Overcast
12:52 PM 79.0 °F - 72.0 °F 79% 29.97 in 9.0 mi SW 10.4 mph - N/A   Overcast
1:52 PM 79.0 °F - 73.0 °F 82% 29.97 in 9.0 mi West 8.1 mph - N/A   Overcast
2:40 PM 81.0 °F 85.8 °F 73.0 °F 77% 29.98 in 9.0 mi West 8.1 mph - N/A   Overcast
2:52 PM 82.0 °F 87.4 °F 73.0 °F 74% 29.96 in 10.0 mi WNW 10.4 mph - N/A   Overcast
3:52 PM 82.0 °F 86.7 °F 72.0 °F 71% 29.95 in 10.0 mi WNW 9.2 mph - N/A   Clear
4:52 PM 82.0 °F 86.7 °F 72.0 °F 71% 29.95 in 10.0 mi West 8.1 mph - N/A   Partly Cloudy
5:52 PM 84.0 °F 89.6 °F 72.0 °F 67% 29.96 in 10.0 mi NNW 4.6 mph - N/A   Clear
6:52 PM 81.0 °F 84.9 °F 71.1 °F 72% 29.96 in 10.0 mi Calm Calm - N/A   Clear
7:52 PM 75.0 °F - 71.1 °F 87% 29.97 in 10.0 mi Calm Calm - N/A   Scattered Clouds
8:52 PM 75.0 °F - 72.0 °F 90% 30.00 in 10.0 mi NE 10.4 mph - N/A   Scattered Clouds
9:52 PM 73.9 °F - 72.0 °F 93% 30.01 in 8.0 mi ENE 8.1 mph - N/A   Clear
10:52 PM 72.0 °F - 71.1 °F 97% 30.02 in - East 6.9 mph - N/A   Unknown
10:56 PM 72.0 °F - 71.1 °F 97% 30.03 in 10.0 mi ENE 5.8 mph - N/A   Clear
11:52 PM 69.1 °F - 69.1 °F 100% 30.02 in 10.0 mi East 5.8 mph - N/A   Clear